Regional Weather Roundup
Issued by NWS

Home | Current Version | Previous Version | Text Only | Print | Product List | Glossary Off
Versions: 1 2 3 4 5 6 7 8 9 10 11 12 13 14 15 16 17 18 19 20 21 22 23 24 25 26 27

000
ASUS45 KBOU 021107
RWRCO

WEATHER ROUNDUP FOR COLORADO
NATIONAL WEATHER SERVICE DENVER/BOULDER CO
500 AM MDT MON MAY 02 2016

NOTE: "FAIR" INDICATES FEW OR NO CLOUDS BELOW 12000 FEET WITH NO
SIGNIFICANT WEATHER AND/OR OBSTRUCTIONS TO VISIBILITY.

COZ001>005-013-030-031-021200-
...NORTHWEST COLORADO...

CITY           SKY/WX    TMP DP  RH WIND       PRES   REMARKS
CRAIG          FAIR      27  22  81 CALM      30.22S
HAYDEN         MOCLDY    32  23  69 CALM      30.21S
MEEKER         CLOUDY    35  30  82 CALM      30.22R
MOUNT WERNER   NOT AVBL
STEAMBOAT SPGS CLOUDY    31  23  73 CALM      30.22R
WALDEN         FAIR      16  12  86 SE5       30.27R WCI   9
$$

COZ006>008-011-021200-
...WEST CENTRAL VALLEYS...

CITY           SKY/WX    TMP DP  RH WIND       PRES   REMARKS
GRAND JUNCTION CLOUDY    44  39  82 SE6       30.18R
MONTROSE       CLOUDY    41  38  89 W3        30.23R
EAGLE          CLOUDY    37  32  81 E3        30.24S
RIFLE          CLOUDY    44  39  82 CALM      30.20R
DELTA          NOT AVBL
NUCLA          NOT AVBL
$$

COZ017>023-064>068-021200-
...SOUTHWEST COLORADO...

CITY           SKY/WX    TMP DP  RH WIND       PRES   REMARKS
DURANGO        CLOUDY    36  34  92 E5        30.24S
CORTEZ         FAIR      39  33  79 CALM      30.22R
PAGOSA SPRINGS FOG       34  34 100 CALM      30.25R VSB 3/4
TELLURIDE      CLOUDY    30  30 100 CALM      30.26R FOG
WOLF CREEK PAS SNOW      21  21 100 SW8       30.29S VSB 1/2 WCI  12
$$

COZ009-010-012-014-032>034-037-058>063-021200-
...CENTRAL COLORADO...

CITY           SKY/WX    TMP DP  RH WIND       PRES   REMARKS
ASPEN          CLOUDY    32  26  78 S5        30.21R WCI  27
BUENA VISTA    CLOUDY    28  26  91 CALM      30.25S
COPPER MTN     NOT AVBL
BERTHOUD PASS  FAIR      12   3  67 N18       30.24S WCI  -5
COTTONWOOD PAS MOCLDY    27  23  86 CALM      30.24S
GUNNISON       MOCLDY    34  28  80 CALM      30.26S
KREMMLING      FAIR      23  19  86 CALM      30.27S
LEADVILLE      FAIR      15  12  88 E6        30.24R WCI   6
SALIDA         CLOUDY    32  30  93 SW5       30.33F WCI  27
SUNLIGHT       CLOUDY    28  28 100 CALM      30.30R FOG
WILKERSON PASS FAIR     N/A N/A N/A NW7       30.25R
$$

COZ069>075-021200-
...SAN LUIS VALLEY/SANGRE DE CRISTO MOUNTAINS...

CITY           SKY/WX    TMP DP  RH WIND       PRES   REMARKS
ALAMOSA        CLOUDY    33  29  85 NE6       30.24R WCI  28
LA VETA PASS   FOG       25  23  93 MISG      30.22F VSB 1
SAGUACHE       MIX PCPN  32  30  93 NW3       30.25S
$$

COZ035-036-038>040-021200-
...NORTHERN COLORADO FRONT RANGE...

CITY           SKY/WX    TMP DP  RH WIND       PRES   REMARKS
DENVER INTL AP FAIR      29  23  78 SW8       30.24F WCI  21
DMNS CITY PARK   N/A     30  28  94 E8        30.25S WCI  22
AURORA         FAIR      28  26  93 S8        30.25F WCI  19
FRONT RANGE AP NOT AVBL
ERIE MUNI ARPT FAIR      28  27  98 CALM      30.25S
BOULDER MUN AP FAIR      34  27  75 SW5       30.24S WCI  30
CENTENNIAL     FAIR      25  21  85 CALM      30.24F
BROOMFIELD     FAIR      32  28  86 W3        30.24F
FORT COLLINS   FAIR      30  25  80 N3        30.25F
LONGMONT       FAIR      32  26  77 W3        30.27S
$$

COZ041-046-047-076>085-087-088-021200-
...PIKES PEAK/PALMER DIVIDE AND SOUTHERN FOOTHILLS...

CITY           SKY/WX    TMP DP  RH WIND       PRES   REMARKS
COLO. SPRINGS  FAIR      27  21  78 N5        30.25F WCI  22
A. F. ACADEMY  FAIR      19  16  86 N9        30.24S WCI   9
SCHRIEVER AFB  NOT AVBL
ELLICOTT       NOT AVBL
FALCON         FAIR      24  20  83 NW3       30.24F
FORT CARSON    FAIR      28  25  87 NW10      30.23F WCI  19
LIMON          FAIR      23  21  92 W9        30.25S WCI  13
MONUMENT HILL  FAIR      19  18  93 W6        30.25S WCI  11
TRINIDAD       CLOUDY    34  31  88 W6        30.25F WCI  29
$$

COZ042>045-048>051-090-091-021200-
...NORTHEAST COLORADO...

CITY           SKY/WX    TMP DP  RH WIND       PRES   REMARKS
GREELEY ARPT     N/A     25  21  86 N3        30.26S
AKRON          FAIR      30  25  81 W13       30.23S WCI  20
BURLINGTON     FAIR      29  24  82 W8        30.23F WCI  21
WRAY           NOT AVBL
STERLING       FAIR      28  28 100 S3        30.23F
HOLYOKE        NOT AVBL
FORT MORGAN    FAIR      27  25  91 W9        30.25S WCI  18
$$

COZ086-089-092>099-021200-
...SOUTHEAST COLORADO...

CITY           SKY/WX    TMP DP  RH WIND       PRES   REMARKS
PUEBLO         FAIR      32  28  85 NW5       30.25F WCI  27
LA JUNTA       FAIR      31  28  89 NW7       30.26S WCI  24
LAMAR          FAIR      27  26  96 S7        30.24S WCI  19
SPRINGFIELD      N/A     30  28  92 NW9       30.24S WCI  22
$$




USA.gov is the U.S. government's official web portal to all federal, state and local government web resources and services.